Regional Weather Roundup
Issued by NWS Newport/Morehead, NC

Current Version | Previous Version | Graphics & Text | Print | Product List | Glossary Off
Versions: 1 2 3 4 5 6 7 8 9 10 11 12 13 14 15 16 17 18 19 20 21 22 23 24 25 26 27 28 29 30 31 32 33 34 35 36 37 38 39 40 41 42 43 44 45 46 47 48 49 50

000
ASUS42 KMHX 170313
RWRMHX
WEATHER ROUNDUP FOR EASTERN NORTH CAROLINA
NATIONAL WEATHER SERVICE NEWPORT/MOREHEAD CITY NC
1000 PM EST SAT DEC 16 2017

NOTE: "FAIR" INDICATES FEW OR NO CLOUDS BELOW 12,000 FEET
WITH NO SIGNIFICANT WEATHER AND/OR OBSTRUCTIONS TO VISIBILITY

NCZ015>017-031-032-045>047-102-103-170400-
NORTH COAST

CITY           SKY/WX    TMP DP  RH WIND       PRES   REMARKS
EDENTON        NOT AVBL
ELIZABETH CITY CLEAR     34  30  85 SW6       30.26R
KITTY HAWK     CLEAR     38  30  73 CALM      30.25S
MANTEO         CLEAR     39  32  74 SW6       30.27S

$$

NCZ045>047-081-094-103-104-170400-
CENTRAL COAST

CITY           SKY/WX    TMP DP  RH WIND       PRES   REMARKS
FRISCO         CLEAR     36  33  89 W5        30.27F

$$

NCZ095-097-098-100-101-170400-
SOUTHERN COAST

CITY           SKY/WX    TMP DP  RH WIND       PRES   REMARKS
BEAUFORT       CLOUDY    38  35  89 CALM      30.30R
CEDAR ISLAND   NOT AVBL
JACKSONVILLE   PTCLDY    35  32  88 SW3       30.30R
PINEY ISLAND     N/A    N/A N/A N/A SW7       30.28S
WILMINGTON     CLEAR     34  31  88 CALM      30.31R


$$

NCZ011>013-027>030-043-044-078>080-089-090>093-098-170400-
COASTAL PLAIN

CITY           SKY/WX    TMP DP  RH WIND       PRES   REMARKS
AHOSKIE        CLEAR     28  25  87 CALM      30.27R
CLINTON        CLOUDY    35  30  84 CALM      30.30R
ELIZABETHTOWN  NOT AVBL
GOLDSBORO      CLOUDY    33  27  78 CALM      30.27R
GREENVILLE     CLEAR     32  28  86 CALM      30.28S
HAVELOCK       CLOUDY    33  32  96 CALM      30.30S
KENANSVILLE    CLOUDY    30  27  86 CALM      30.30R
KINSTON        CLEAR     30  27  86 CALM      30.29R
NEW BERN       PTCLDY    30  29  96 S3        30.30R
RICHLANDS      CLOUDY    30  27  88 CALM      30.30R
ROCKY MOUNT    CLOUDY    32  27  81 CALM      30.27S
WASHINGTON     CLEAR     34  28  77 CALM      30.28S
WHITEVILLE     CLEAR     37  32  81 CALM      30.29R

$$

AMZ130-135-150-152-154-156-158-170-250-252-270-ANZ085-086-088-633-658-670-170400-
MARINE OBSERVATIONS

STATION/POSITION TIME  TEMP    WIND        PRES    WAVE   SWELL
                       AIR SEA DIR/SP/G            HT/PER HT/PER
                 (UTC) (F)     (DEG/KT/KT) (MB)    (FT/S) (FT/S)
CHESAPEAKE LIGHT NOT AVBL
64 E VA BEACH    0250   49 59  270/ 17/ 21 1024.4    4/ 4
DUCK             0242   42 52  230/  7/  9 1024.1
2 E DUCK         0300      54                N/A     1/ 9
OREGON INLET     0242   42 47  220/  7/  8 1025.0
13E OREGON INLT  0248      58                N/A     2/ 8   2/ 8
HATTERAS CG      0242   43 52  250/  3/  4 1024.9
DIAMOND BUOY     0300   52 72  280/ 14/ 17 1025.2
CAPE LOOKOUT     0300          310/  8/  9 1025.9
BEAUFORT LAB     0242   44 50  330/  2/  2 1025.7
30 SE NEW RVR IN 0208   52 63  240/  8/ 12 1025.5
30 SE NEW RVR IN 0300      63                N/A     2/ 6
27 SE WRIGHTSVLE 0208   52 63  250/ 10/ 16 1025.6
5 SE WRIGHTSVLE  0208   49 56  260/ 10/ 12 1025.1
225 S CAPE HAT   0250   62 74  340/  8/ 10 1025.4    5/ 6   5/ 6
41 SE CHARLESTON 0300   58     230/  2/  6 1025.6

$$




USA.gov is the U.S. government's official web portal to all federal, state and local government web resources and services.